Total_Precipitation_Accumulation
0.13 0.18 0.23 0.27 0.23 0.19 0.16 0.16 0.24 0.38 0.57 0.72 0.87 0.96 1.01 0.98 0.93 0.87 0.85 0.84 0.77 0.80 0.91 1.03 1.19 1.31 1.46 1.52 1.72 1.84 2.11 2.27 2.30 2.41 2.41 2.43 2.55 2.57 2.49 2.53 2.57 2.75 2.81 2.84
0.10 0.12 0.17 0.20 0.22 0.17 0.15 0.14 0.19 0.36 0.66 0.74 0.86 0.98 1.02 0.95 0.90 0.87 0.87 0.89 0.94 0.97 1.04 1.16 1.21 1.33 1.46 1.55 1.78 2.03 2.27 2.55 2.60 2.66 2.63 2.70 2.84 2.90 2.82 2.82 2.95 2.98 2.85 2.78
0.17 0.17 0.18 0.23 0.22 0.20 0.22 0.21 0.27 0.42 0.62 0.73 0.85 0.96 1.10 1.08 0.99 0.97 1.01 1.04 1.10 1.23 1.23 1.24 1.29 1.42 1.60 1.75 1.97 2.15 2.32 2.56 2.74 2.83 2.89 2.97 3.04 3.05 3.01 3.12 3.31 3.29 3.12 2.91
0.22 0.28 0.33 0.28 0.27 0.26 0.31 0.34 0.38 0.52 0.61 0.85 1.06 1.16 1.36 1.41 1.23 1.14 1.06 1.05 1.16 1.35 1.41 1.38 1.42 1.55 1.79 1.98 2.25 2.48 2.59 2.68 2.80 2.90 2.96 3.03 3.10 3.00 3.04 3.19 3.25 3.26 3.14 2.98
0.32 0.36 0.36 0.39 0.42 0.45 0.51 0.65 0.64 0.77 0.91 1.09 1.23 1.26 1.40 1.29 1.16 1.12 1.13 1.22 1.31 1.44 1.51 1.59 1.66 1.78 1.89 2.04 2.29 2.57 2.78 2.77 2.74 2.86 2.99 3.05 3.06 3.06 3.12 3.17 3.06 2.91 2.81 2.78
0.45 0.51 0.56 0.58 0.60 0.58 0.68 1.22 1.21 1.21 1.20 1.26 1.33 1.63 1.62 1.32 1.18 1.18 1.23 1.29 1.39 1.49 1.52 1.60 1.69 1.73 1.84 2.05 2.31 2.55 2.76 2.84 2.84 2.95 3.02 3.04 3.14 3.20 3.14 3.09 3.00 2.88 2.69 2.65
0.62 0.73 0.73 0.63 0.60 0.64 1.11 1.55 1.38 1.36 1.39 1.40 1.59 1.69 1.59 1.42 1.38 1.33 1.36 1.46 1.49 1.54 1.53 1.52 1.63 1.74 1.88 2.01 2.17 2.40 2.64 2.86 3.07 3.20 3.22 3.22 3.25 3.15 3.07 2.98 3.00 2.93 2.77 2.65
0.86 1.13 1.26 0.85 0.70 1.04 1.43 1.26 1.40 1.53 1.50 1.51 1.55 1.50 1.48 1.46 1.46 1.43 1.42 1.48 1.49 1.53 1.63 1.70 1.80 1.90 1.98 1.94 2.06 2.29 2.41 2.63 2.79 2.97 3.09 3.07 3.14 3.08 3.13 3.07 2.93 2.78 2.65 2.49
1.23 1.41 1.25 1.02 1.05 1.22 1.28 1.36 1.42 1.59 1.69 1.62 1.69 1.64 1.47 1.49 1.46 1.59 1.69 1.72 1.66 1.57 1.65 1.84 1.92 1.98 2.05 2.04 1.99 2.07 2.22 2.42 2.65 2.82 3.09 3.23 3.26 3.20 3.09 2.99 2.78 2.57 2.42 2.27
1.49 1.55 1.43 1.34 1.28 1.27 1.30 1.39 1.45 1.58 1.72 1.79 1.73 1.59 1.53 1.48 1.39 1.36 1.45 1.50 1.65 1.62 1.68 2.04 2.02 1.96 2.00 2.06 2.05 2.11 2.22 2.32 2.49 2.63 2.82 3.08 3.17 3.10 2.93 2.67 2.50 2.45 2.37 2.32
1.72 1.79 1.57 1.49 1.42 1.48 1.47 1.45 1.44 1.53 1.63 1.69 1.57 1.51 1.54 1.58 1.44 1.37 1.41 1.39 1.40 1.49 1.57 1.70 1.81 1.84 1.84 1.91 2.01 2.05 2.09 2.11 2.15 2.34 2.54 2.73 2.77 2.69 2.54 2.41 2.48 2.50 2.43 2.39
2.03 1.82 1.82 1.84 1.68 1.66 1.74 1.74 1.73 1.73 1.89 1.86 1.61 1.55 1.50 1.45 1.39 1.29 1.25 1.35 1.41 1.39 1.43 1.53 1.61 1.72 1.80 1.95 2.10 2.17 2.13 2.07 1.99 1.95 2.06 2.34 2.62 2.70 2.59 2.38 2.40 2.30 2.19 2.14
1.80 1.74 1.83 1.88 1.89 1.92 2.02 2.01 1.96 1.95 2.02 1.94 1.72 1.60 1.49 1.43 1.32 1.27 1.22 1.30 1.50 1.57 1.57 1.66 1.66 1.60 1.67 1.89 2.07 2.21 2.15 2.10 1.98 1.87 1.91 2.09 2.41 2.70 2.78 2.57 2.32 2.16 1.92 1.74
1.67 1.83 2.06 2.09 2.14 2.10 2.07 2.09 2.08 2.13 2.08 2.03 1.84 1.62 1.51 1.55 1.50 1.38 1.33 1.37 1.55 1.74 1.77 1.77 1.77 1.78 1.77 1.87 1.98 2.06 2.07 2.08 1.95 1.83 1.91 2.03 2.25 2.54 2.73 2.68 2.46 2.17 1.85 1.63
1.88 1.89 1.93 1.90 2.03 2.06 2.06 2.12 2.10 2.19 2.17 2.08 1.89 1.71 1.53 1.47 1.49 1.45 1.44 1.53 1.74 1.85 1.82 1.75 1.77 1.77 1.68 1.63 1.76 1.92 2.00 2.03 1.99 1.91 1.91 1.92 2.11 2.41 2.60 2.62 2.49 2.28 1.97 1.66
2.11 1.97 1.79 1.81 2.00 2.05 2.05 2.15 2.07 2.08 2.13 2.06 1.91 1.82 1.78 1.72 1.67 1.57 1.56 1.66 1.95 2.06 1.93 1.84 1.85 1.81 1.68 1.64 1.66 1.72 1.77 1.82 1.73 1.70 1.76 1.74 1.80 1.97 2.25 2.42 2.37 2.31 2.06 1.63
2.07 2.16 2.09 2.05 2.09 2.11 2.13 2.08 1.95 1.98 2.07 2.12 2.08 1.98 2.00 2.01 2.01 1.95 1.90 1.91 2.03 2.08 1.93 1.83 1.80 1.71 1.58 1.59 1.64 1.57 1.54 1.59 1.56 1.42 1.54 1.62 1.70 1.84 2.11 2.33 2.28 2.19 2.01 1.71
1.86 1.86 1.89 1.99 2.11 2.16 2.06 1.91 1.85 1.85 1.90 2.02 2.09 2.04 2.07 2.18 2.30 2.39 2.31 2.14 2.02 1.89 1.76 1.67 1.64 1.57 1.47 1.43 1.39 1.34 1.32 1.34 1.34 1.28 1.38 1.48 1.58 1.82 2.08 2.21 2.13 2.03 1.92 1.73
1.74 1.75 1.75 1.77 1.87 1.92 1.82 1.79 1.74 1.63 1.58 1.68 1.81 1.90 1.97 2.05 2.14 2.34 2.28 2.24 2.20 2.03 1.73 1.54 1.58 1.44 1.38 1.37 1.39 1.31 1.22 1.24 1.26 1.25 1.29 1.40 1.55 1.72 1.87 1.92 1.90 1.89 1.75 1.60
1.80 1.77 1.73 1.81 1.87 1.83 1.71 1.61 1.65 1.59 1.57 1.61 1.60 1.64 1.74 1.82 1.91 2.14 2.21 2.24 2.17 1.95 1.67 1.52 1.36 1.26 1.20 1.18 1.23 1.25 1.30 1.35 1.39 1.43 1.47 1.54 1.61 1.71 1.75 1.72 1.66 1.63 1.60 1.59
1.71 1.68 1.63 1.77 1.82 1.68 1.55 1.44 1.50 1.54 1.53 1.50 1.45 1.47 1.51 1.58 1.70 1.94 2.24 2.39 2.08 1.69 1.46 1.42 1.25 1.12 1.07 1.11 1.12 1.11 1.23 1.36 1.42 1.49 1.54 1.60 1.67 1.69 1.69 1.64 1.54 1.49 1.49 1.52
1.65 1.60 1.57 1.65 1.71 1.63 1.38 1.32 1.33 1.35 1.35 1.28 1.23 1.30 1.36 1.49 1.59 1.73 1.92 2.18 2.09 1.89 1.48 1.25 1.14 1.07 1.04 1.05 0.98 1.03 1.11 1.21 1.35 1.38 1.42 1.52 1.62 1.68 1.63 1.59 1.52 1.47 1.48 1.51
1.78 1.61 1.59 1.63 1.73 1.62 1.40 1.30 1.31 1.40 1.36 1.29 1.28 1.32 1.35 1.49 1.56 1.79 1.93 1.82 1.78 1.85 1.50 1.30 1.33 1.21 1.05 0.96 0.94 0.97 1.04 1.14 1.28 1.38 1.41 1.47 1.51 1.54 1.54 1.49 1.49 1.48 1.48 1.42
1.93 1.75 1.65 1.60 1.64 1.58 1.56 1.42 1.31 1.43 1.39 1.27 1.23 1.23 1.27 1.40 1.41 1.47 1.63 1.75 1.76 1.72 1.42 1.34 1.33 1.17 1.03 0.95 1.02 1.09 1.20 1.29 1.31 1.30 1.26 1.33 1.40 1.38 1.37 1.32 1.30 1.35 1.35 1.31
1.97 1.86 1.74 1.63 1.64 1.55 1.46 1.39 1.37 1.42 1.35 1.29 1.30 1.32 1.28 1.32 1.42 1.45 1.44 1.47 1.65 1.64 1.41 1.36 1.26 1.17 1.05 0.99 1.11 1.26 1.33 1.25 1.20 1.19 1.19 1.23 1.33 1.34 1.28 1.30 1.35 1.30 1.26 1.24
1.94 1.90 1.82 1.67 1.55 1.45 1.39 1.38 1.44 1.47 1.41 1.42 1.45 1.41 1.36 1.37 1.42 1.42 1.42 1.41 1.43 1.53 1.41 1.26 1.11 1.07 1.07 1.10 1.13 1.19 1.19 1.14 1.13 1.14 1.14 1.17 1.23 1.27 1.23 1.26 1.27 1.24 1.25 1.26
1.90 1.88 1.81 1.69 1.59 1.48 1.45 1.49 1.51 1.53 1.51 1.53 1.57 1.53 1.54 1.55 1.56 1.57 1.51 1.44 1.36 1.32 1.23 1.12 1.02 0.96 0.96 1.01 1.00 1.01 1.06 1.08 1.05 1.05 1.09 1.13 1.19 1.21 1.14 1.14 1.16 1.16 1.19 1.18